Location: Czekanka
(50.4925°N, 19.2643°E)
Time: 17:06:57
(UTC+00:00)

Cosmos 2228 - Visible Passes

Search period start: 08 September 2024 00:00
Search period end: 18 September 2024 00:00
Orbit: 575 x 602 km, 82.5° (Epoch: 07 September)

Date Brightness Start Highest point End Pass type
(mag) Time Alt. Az. Time Alt. Az. Time Alt. Az.
08 Sep 5.5 01:36:53 10° SE 01:39:52 19° E 01:42:51 10° NE visible
08 Sep 3.2 03:12:40 10° SSW 03:16:44 48° WNW 03:20:52 10° N visible
09 Sep 5.0 01:43:58 10° SE 01:47:28 26° E 01:51:00 10° NNE visible
09 Sep 3.7 03:20:44 10° SW 03:24:34 34° WNW 03:28:28 10° N visible
10 Sep 4.3 01:51:47 13° SSE 01:55:06 37° E 01:59:00 10° NNE visible
10 Sep 4.1 03:28:56 10° SW 03:32:26 25° WNW 03:35:59 10° NNW visible
11 Sep 3.7 02:00:05 20° SSE 02:02:44 52° E 02:06:53 10° NNE visible
11 Sep 4.5 03:37:18 10° WSW 03:40:19 19° WNW 03:43:22 10° NNW visible
12 Sep 3.0 02:08:19 29° S 02:10:24 76° E 02:14:41 10° NNE visible
13 Sep 5.7 00:39:56 11° ESE 00:41:31 13° E 00:43:20 10° NE visible
13 Sep 2.8 02:16:28 37° SSW 02:18:06 77° WNW 02:22:23 10° N visible
14 Sep 5.3 00:48:03 16° ESE 00:49:00 17° E 00:51:50 10° NE visible
14 Sep 3.1 02:24:35 39° SW 02:25:48 53° WNW 02:30:01 10° N visible
15 Sep 4.9 00:56:06 24° E 00:56:31 24° E 00:59:56 10° NE visible
15 Sep 3.5 02:32:38 34° WSW 02:33:33 38° WNW 02:37:33 10° N visible
16 Sep 4.4 01:04:07 33° E 01:04:07 33° E 01:07:52 10° NNE visible
16 Sep 4.0 02:40:39 27° W 02:41:18 28° WNW 02:45:01 10° N visible
17 Sep 4.0 01:12:05 44° ENE 01:12:05 44° ENE 01:15:42 10° NNE visible
17 Sep 4.4 02:48:37 20° WNW 02:49:05 21° WNW 02:52:21 10° NNW visible
